Temp
-14 -14 -12 -13 -14 -12 -13 -13 -13 -13 -12 -12 -12 -12 -12 -12 -12 -12 -12 -12 -11 -11 -11 -12 -12 -12 -12 -12 -12 -13 -13 -13
-14 -14 -13 -13 -13 -12 -13 -13 -13 -13 -13 -12 -12 -12 -12 -12 -12 -12 -12 -12 -11 -11 -11 -12 -12 -12 -12 -12 -12 -13 -13 -13
-13 -13 -13 -13 -12 -12 -12 -13 -13 -13 -12 -13 -13 -12 -12 -12 -13 -13 -12 -12 -11 -11 -12 -12 -12 -12 -12 -12 -12 -13 -13 -14
-13 -13 -13 -13 -12 -12 -12 -12 -12 -12 -12 -12 -12 -12 -12 -12 -12 -13 -12 -12 -11 -11 -12 -12 -12 -12 -12 -13 -13 -13 -14 -15
-12 -13 -13 -12 -12 -12 -12 -12 -12 -12 -12 -12 -12 -12 -11 -12 -12 -13 -12 -12 -11 -11 -11 -12 -12 -13 -12 -12 -13 -13 -14 -15
-13 -13 -12 -12 -12 -12 -12 -12 -12 -12 -12 -12 -11 -12 -11 -12 -12 -13 -13 -12 -11 -11 -12 -12 -12 -13 -13 -13 -13 -14 -15 -16
-13 -13 -13 -13 -12 -12 -12 -12 -12 -12 -12 -12 -11 -12 -12 -12 -12 -13 -12 -12 -11 -12 -12 -12 -13 -13 -13 -13 -13 -14 -16 -16
-12 -13 -13 -13 -13 -12 -12 -12 -12 -12 -12 -12 -12 -12 -12 -12 -12 -13 -12 -11 -11 -12 -12 -13 -13 -13 -13 -13 -14 -15 -16 -16
-13 -13 -12 -13 -13 -13 -12 -12 -12 -12 -12 -12 -12 -12 -12 -12 -12 -12 -12 -11 -12 -12 -13 -12 -13 -13 -13 -14 -14 -15 -16 -17
-13 -13 -13 -13 -14 -13 -12 -12 -12 -12 -12 -12 -12 -12 -12 -12 -12 -12 -12 -12 -13 -13 -13 -13 -13 -12 -14 -14 -14 -15 -16 -17
-14 -14 -13 -13 -14 -13 -13 -12 -12 -13 -13 -12 -12 -12 -12 -12 -12 -12 -12 -13 -13 -13 -13 -13 -12 -13 -14 -14 -15 -16 -17 -17
-14 -14 -14 -14 -13 -13 -13 -12 -12 -13 -13 -12 -13 -12 -13 -13 -12 -12 -13 -13 -13 -13 -13 -13 -13 -13 -14 -15 -15 -17 -18 -18
-13 -14 -14 -14 -13 -13 -13 -13 -13 -13 -13 -13 -13 -13 -13 -13 -13 -13 -13 -13 -13 -13 -13 -14 -13 -14 -14 -15 -16 -17 -17 -17
-13 -13 -12 -12 -13 -14 -13 -13 -13 -13 -13 -13 -13 -13 -13 -13 -13 -13 -14 -13 -13 -13 -14 -14 -14 -15 -15 -16 -16 -17 -17 -16
-13 -13 -12 -12 -13 -13 -13 -13 -14 -14 -14 -13 -14 -14 -14 -13 -13 -14 -13 -13 -13 -13 -14 -14 -15 -15 -16 -16 -17 -17 -16 -16
-13 -13 -13 -13 -14 -14 -14 -14 -14 -14 -13 -14 -14 -14 -14 -14 -14 -14 -14 -14 -13 -13 -14 -14 -15 -16 -16 -16 -16 -16 -16 -16
-14 -13 -13 -13 -14 -14 -14 -13 -14 -13 -14 -14 -14 -14 -14 -14 -14 -14 -14 -14 -14 -14 -15 -15 -16 -16 -16 -16 -16 -16 -16 -16
-13 -14 -13 -13 -13 -14 -14 -14 -14 -14 -14 -14 -14 -14 -14 -14 -14 -14 -14 -14 -14 -15 -15 -16 -16 -15 -15 -15 -15 -16 -16 -16
-14 -14 -14 -14 -14 -14 -13 -14 -14 -14 -14 -14 -14 -14 -14 -14 -14 -14 -14 -15 -15 -15 -16 -16 -16 -16 -15 -16 -16 -17 -17 -16
-14 -14 -14 -14 -14 -14 -14 -14 -14 -14 -14 -14 -14 -14 -14 -14 -14 -14 -14 -14 -14 -15 -15 -16 -16 -16 -16 -16 -16 -16 -16 -16
Height
5749 5745 5740 5759 5759 5764 5771 5774 5781 5785 5790 5795 5795 5799 5804 5811 5815 5817 5819 5821 5821 5823 5824 5826 5827 5828 5829 5830 5830 5832 5833 5834
5745 5737 5747 5748 5756 5757 5766 5771 5775 5781 5785 5789 5791 5795 5800 5806 5810 5813 5816 5818 5818 5819 5821 5823 5824 5826 5826 5827 5827 5829 5829 5831
5740 5742 5745 5743 5745 5754 5761 5764 5769 5776 5781 5782 5786 5791 5793 5800 5804 5808 5812 5813 5814 5816 5819 5821 5820 5822 5823 5823 5825 5825 5826 5828
5734 5738 5737 5736 5740 5748 5754 5757 5760 5769 5775 5778 5781 5785 5790 5796 5799 5804 5807 5809 5809 5812 5816 5817 5817 5818 5819 5821 5821 5823 5822 5824
5733 5734 5736 5736 5738 5743 5749 5751 5753 5761 5767 5773 5777 5780 5785 5789 5794 5798 5802 5804 5805 5809 5812 5813 5814 5814 5816 5817 5818 5818 5819 5822
5732 5734 5735 5736 5737 5742 5745 5746 5750 5755 5761 5766 5767 5773 5777 5783 5788 5793 5797 5799 5800 5805 5806 5808 5809 5811 5811 5813 5815 5814 5816 5819
5731 5731 5732 5734 5737 5738 5738 5741 5744 5750 5756 5759 5761 5768 5773 5779 5783 5788 5793 5794 5797 5800 5802 5804 5806 5805 5807 5808 5809 5811 5812 5815
5730 5729 5729 5730 5732 5731 5732 5734 5739 5744 5750 5753 5758 5762 5769 5774 5778 5784 5788 5790 5793 5795 5797 5799 5800 5800 5801 5803 5804 5806 5807 5809
5729 5730 5729 5728 5729 5729 5729 5733 5734 5739 5744 5749 5752 5758 5764 5770 5774 5778 5783 5787 5788 5790 5793 5793 5794 5796 5797 5798 5799 5801 5802 5805
5728 5728 5727 5727 5729 5730 5729 5730 5733 5737 5740 5744 5749 5754 5759 5763 5768 5773 5777 5782 5784 5787 5787 5789 5789 5791 5793 5793 5794 5797 5798 5799
5729 5727 5727 5726 5727 5729 5729 5729 5731 5736 5740 5744 5747 5750 5752 5758 5764 5767 5772 5776 5781 5783 5784 5785 5785 5787 5787 5788 5789 5791 5793 5795
5728 5727 5725 5724 5726 5727 5727 5728 5730 5733 5738 5742 5745 5747 5751 5757 5761 5765 5768 5772 5776 5778 5779 5781 5783 5783 5782 5783 5783 5785 5787 5790
5725 5722 5721 5721 5722 5725 5727 5728 5729 5732 5736 5739 5743 5745 5751 5755 5758 5761 5764 5767 5769 5772 5774 5774 5775 5776 5776 5777 5778 5779 5782 5784
5722 5716 5709 5712 5717 5721 5724 5726 5727 5731 5734 5737 5741 5746 5748 5751 5755 5757 5759 5763 5766 5767 5768 5768 5769 5769 5769 5770 5773 5776 5777 5779
5720 5715 5707 5708 5714 5718 5721 5724 5726 5729 5733 5737 5739 5741 5744 5748 5750 5752 5755 5757 5759 5760 5760 5760 5760 5761 5763 5766 5767 5770 5771 5775
5720 5717 5713 5713 5716 5720 5723 5724 5725 5727 5729 5732 5734 5737 5740 5743 5745 5747 5749 5751 5753 5754 5753 5754 5755 5756 5757 5761 5763 5765 5766 5769
5721 5719 5718 5718 5719 5718 5718 5719 5720 5723 5727 5728 5731 5734 5737 5739 5740 5741 5743 5745 5747 5748 5749 5749 5750 5753 5753 5755 5758 5760 5762 5763
5720 5719 5718 5718 5719 5718 5717 5717 5720 5721 5721 5722 5726 5730 5733 5734 5736 5737 5738 5740 5742 5742 5743 5745 5747 5750 5751 5752 5755 5756 5757 5758
5718 5718 5717 5716 5716 5716 5717 5718 5720 5719 5717 5719 5722 5724 5727 5729 5730 5731 5733 5735 5737 5738 5739 5742 5745 5747 5748 5749 5750 5750 5750 5752
5716 5716 5715 5714 5715 5715 5715 5716 5717 5717 5717 5719 5720 5723 5724 5726 5728 5728 5729 5730 5731 5734 5736 5738 5739 5742 5741 5741 5742 5743 5742 5743
Wind_Speed
31 32 33 30 33 29 31 33 30 25 28 28 32 31 33 33 31 30 27 24 17 15 15 12 10 9 10 9 14 15 16 16
21 22 35 36 45 33 35 36 30 34 32 31 29 35 39 36 32 32 28 25 16 16 16 15 12 12 13 11 13 18 17 18
19 11 16 21 41 43 31 35 34 32 36 28 33 35 40 39 35 33 31 24 18 18 20 19 13 14 16 15 16 17 17 19
19 15 21 21 30 40 36 42 34 26 33 30 36 43 39 41 38 35 33 24 17 18 19 19 18 18 19 21 17 19 20 21
15 11 11 17 26 39 39 33 40 32 40 36 30 36 44 45 40 38 32 25 20 20 23 21 21 20 20 21 20 19 19 20
14 10 8 15 21 28 38 37 41 34 36 33 33 36 51 47 39 38 34 26 22 26 26 22 23 20 22 19 20 21 19 22
10 6 6 8 13 17 24 31 44 41 42 37 29 35 34 47 43 40 34 27 28 27 27 23 25 27 22 21 22 24 22 24
12 9 12 13 12 14 15 24 32 39 41 45 39 36 35 50 45 38 31 28 30 26 28 24 27 23 26 25 24 25 26 25
10 11 16 14 10 10 13 26 26 35 38 46 44 45 40 49 48 38 34 31 31 30 30 31 30 25 25 25 25 27 29 26
5 9 15 15 12 14 16 21 31 35 42 42 39 39 38 52 49 45 38 36 35 30 31 33 32 29 27 25 26 30 30 29
5 9 13 16 18 17 15 21 29 33 42 33 24 30 34 50 51 48 40 40 36 35 35 35 33 29 25 27 30 32 30 29
9 9 11 15 16 16 18 22 29 29 34 40 22 28 32 38 48 38 38 37 34 35 35 34 28 26 27 30 33 34 32 28
10 16 21 21 22 20 20 21 30 34 34 29 30 27 33 37 36 37 31 26 30 28 28 27 27 28 28 31 35 37 30 33
11 20 18 25 28 26 23 22 28 31 30 32 32 31 32 35 33 30 26 30 28 25 25 27 26 29 31 34 33 34 36 32
11 15 5 17 28 27 25 23 23 28 22 26 26 24 24 26 30 31 32 31 32 30 27 27 31 28 29 27 26 27 28 31
8 9 10 3 18 19 22 21 25 23 14 19 22 19 28 24 28 33 33 32 31 32 30 29 27 28 27 26 27 28 30 30
6 5 4 2 5 10 17 26 25 25 29 27 25 27 26 28 31 38 33 33 35 36 28 28 27 26 26 28 30 32 34 34
6 5 3 3 4 5 5 6 11 19 29 28 27 30 33 29 30 33 35 35 36 31 29 28 28 28 30 30 33 35 37 35
7 7 6 5 6 7 7 8 10 8 14 30 29 24 26 28 26 32 29 29 31 27 28 29 28 31 32 31 34 35 36 36
9 8 9 8 6 8 10 9 10 9 7 6 11 15 16 18 20 20 20 22 24 28 31 31 33 35 35 34 37 38 38 39
Wind_Direction
253 237 217 230 212 223 224 220 223 224 216 224 229 211 202 201 206 221 223 216 214 222 214 216 229 235 266 272 255 251 253 258
281 285 224 209 211 212 221 231 224 222 220 215 225 210 199 206 208 223 224 218 214 221 223 227 228 242 258 270 275 257 244 253
270 248 254 259 226 203 215 217 213 219 221 209 221 213 200 206 210 221 227 220 218 234 233 240 241 252 258 268 272 262 250 242
286 269 278 245 233 225 216 219 210 222 209 215 207 200 207 211 214 221 227 222 225 234 242 247 246 256 263 262 262 256 258 236
268 300 292 207 246 207 216 221 215 237 219 203 205 214 205 210 214 220 227 226 232 242 242 247 254 256 264 264 256 254 241 235
249 233 203 202 199 208 227 228 228 224 209 207 206 204 207 205 211 219 223 225 238 237 242 251 253 258 257 267 260 247 235 240
215 253 251 202 210 219 229 224 224 232 217 221 231 210 209 208 212 218 223 227 235 238 244 236 249 246 255 262 263 244 233 242
214 231 254 246 247 243 232 212 217 214 214 225 224 227 224 209 213 215 223 228 235 234 240 229 250 248 248 255 252 241 230 235
235 240 228 231 246 255 216 208 211 211 220 222 235 235 224 215 213 216 221 231 231 236 239 236 242 252 258 252 244 235 237 238
266 232 224 226 222 231 227 213 203 207 221 222 220 218 232 212 213 217 223 228 228 233 236 240 244 252 260 260 253 243 230 234
307 264 237 252 244 219 219 195 191 200 211 212 227 229 228 215 216 222 222 224 230 235 241 245 246 252 258 256 247 237 231 233
299 287 281 250 238 221 212 210 199 197 207 215 223 217 203 216 220 219 217 225 232 239 244 245 257 264 256 254 242 232 231 231
306 295 282 257 229 229 224 229 203 201 205 197 198 201 204 208 213 217 217 223 231 234 243 251 257 261 259 251 239 237 228 236
325 321 280 232 221 221 216 215 183 182 188 191 202 208 210 211 216 226 231 233 236 241 248 254 262 259 251 245 238 235 241 239
341 357 308 219 210 218 212 226 249 216 202 213 212 218 222 232 231 234 241 248 244 244 254 256 255 252 242 238 231 231 233 237
346 2 39 200 206 218 229 240 231 243 242 244 224 252 234 245 249 246 244 247 250 257 257 261 252 236 227 225 226 233 236 242
329 339 359 64 204 255 261 238 235 234 228 223 242 245 249 260 250 236 239 246 246 252 254 262 248 235 228 232 237 242 243 247
346 328 305 278 268 270 261 266 253 254 235 231 244 242 247 258 252 242 245 248 253 250 251 249 249 239 236 240 246 246 248 255
317 321 327 301 272 254 251 248 257 276 239 228 243 236 237 247 250 239 243 254 255 244 243 240 240 247 251 254 257 258 257 258
300 321 309 289 259 257 245 250 257 264 270 236 226 227 230 233 240 241 240 240 238 240 240 242 250 255 259 264 264 262 261 259